"2010-03-20 00:00:00",1777239,16.88,63.32,3.706,0.712,-54.26,97.27507,-7.639,-6.379,93.7,0,109.2,13.76,-6.91,25.3
"2010-03-20 00:00:30",1777240,16.96,64.12,2.367,0.603,-54.19,97.27451,-7.64,-6.392,93.7,0,109.2,13.76,-6.92,26.1
"2010-03-20 00:01:00",1777241,16.88,63.9,2.971,0.71,-54.27,97.27251,-7.646,-6.396,93.7,0,109.2,13.76,-6.92,25.9
"2010-03-20 00:01:30",1777242,16.85,63.91,2.532,0.786,-54.41,97.26713,-7.659,-6.389,93.7,0,109.2,13.76,-6.93,25.9
"2010-03-20 00:02:00",1777243,16.92,63.31,3.676,0.624,-54.2,97.25635,-7.687,-6.384,93.6,0,109.2,13.76,-6.96,25.3
"2010-03-20 00:02:30",1777244,16.92,63.9,2.563,0.694,-54.34,97.2521,-7.697,-6.384,93.6,0,109.2,13.76,-6.97,25.9
"2010-03-20 00:03:00",1777245,16.88,63.51,3.25,0.713,-54.41,97.25068,-7.701,-6.399,93.6,0,109.2,13.76,-6.98,25.5
"2010-03-20 00:03:30",1777246,16.88,63.5,3.235,0.711,-54.34,97.24585,-7.713,-6.389,93.5,0,109.2,13.76,-6.99,25.5
"2010-03-20 00:04:00",1777247,16.88,63.7,3.101,0.711,-54.27,97.24358,-7.719,-6.383,93.5,0,109.2,13.76,-6.99,25.7
"2010-03-20 00:04:30",1777248,16.96,63.7,3.136,0.604,-54.13,97.24302,-7.721,-6.397,93.5,0,109.2,13.76,-7.00,25.7
"2010-03-20 00:05:00",1777249,16.89,63.74,3.133,0.711,-54.25,97.24302,-7.721,-6.404,93.4,0,109.2,13.76,-7.00,25.7
"2010-03-20 00:05:30",1777250,16.85,63.7,2.777,0.786,-54.4,97.24302,-7.721,-6.418,93.4,0,109.2,13.76,-7.00,25.7
"2010-03-20 00:06:00",1777251,16.89,63.33,3.812,0.714,-54.32,97.24302,-7.721,-6.432,93.3,0,109.2,13.75,-7.00,25.3
"2010-03-20 00:06:30",1777252,16.93,63.92,2.627,0.692,-54.25,97.23621,-7.738,-6.427,93.2,0,109.2,13.76,-7.01,25.9
"2010-03-20 00:07:00",1777253,16.89,63.51,3.279,0.711,-54.33,97.22175,-7.775,-6.435,93.2,0,109.2,13.76,-7.05,25.5
"2010-03-20 00:07:30",1777254,16.89,63.63,3.001,0.711,-54.33,97.2138,-7.795,-6.465,93.1,0,109.2,13.76,-7.07,25.6
"2010-03-20 00:08:00",1777255,16.85,63.74,2.708,0.785,-54.39,97.20983,-7.805,-6.475,93,0,109.2,13.76,-7.08,25.7
"2010-03-20 00:08:30",1777256,16.93,63.95,2.532,0.697,-54.25,97.20898,-7.807,-6.48,92.9,0,109.2,13.75,-7.08,26.0
"2010-03-20 00:09:00",1777257,16.85,63.54,2.866,0.785,-54.39,97.20898,-7.807,-6.488,92.8,0,109.2,13.75,-7.08,25.5
"2010-03-20 00:09:30",1777258,16.89,63.75,2.716,0.714,-54.47,97.20898,-7.807,-6.492,92.7,0,109.2,13.76,-7.08,25.8
"2010-03-20 00:10:00",1777259,16.88,63.75,2.677,0.715,-54.47,97.20898,-7.807,-6.514,92.6,0,109.2,13.76,-7.08,25.8
"2010-03-20 00:10:30",1777260,16.97,63.73,3.108,0.603,-54.11,97.20898,-7.807,-6.513,92.5,0,109.2,13.76,-7.08,25.7
"2010-03-20 00:11:00",1777261,16.85,63.94,2.525,0.786,-54.4,97.20898,-7.807,-6.539,92.4,0,109.2,13.76,-7.08,25.9
"2010-03-20 00:11:30",1777262,16.85,63.94,2.528,0.785,-54.32,97.20274,-7.823,-6.519,92.3,0,109.2,13.76,-7.10,25.9
"2010-03-20 00:12:00",1777263,16.85,63.94,2.55,0.788,-54.39,97.19197,-7.85,-6.523,92.2,0,109.2,13.77,-7.13,25.9
"2010-03-20 00:12:30",1777264,16.93,63.92,2.551,0.694,-54.26,97.18998,-7.855,-6.55,92.1,0,109.2,13.77,-7.13,25.9
"2010-03-20 00:13:00",1777265,16.85,63.96,2.006,0.79,-54.46,97.18657,-7.864,-6.536,92.1,0,109.2,13.77,-7.14,26.0
"2010-03-20 00:13:30",1777266,16.89,63.55,3.24,0.712,-54.32,97.18288,-7.874,-6.536,92,0,109.2,13.77,-7.15,25.5
"2010-03-20 00:14:00",1777267,16.93,63.38,3.668,0.629,-54.39,97.18203,-7.876,-6.54,91.9,0,109.2,13.77,-7.15,25.4
"2010-03-20 00:14:30",1777268,16.93,64.34,1.464,0.693,-54.32,97.18005,-7.881,-6.553,91.9,0,109.2,13.77,-7.16,26.3
"2010-03-20 00:15:00",1777269,16.85,63.71,2.754,0.792,-54.39,97.18005,-7.881,-6.565,91.9,0,109.2,13.77,-7.16,25.7
"2010-03-20 00:15:30",1777270,16.88,63.28,3.762,0.712,-54.34,97.18118,-7.878,-6.533,91.9,0,109.2,13.77,-7.15,25.3
"2010-03-20 00:16:00",1777271,16.92,63.68,2.77,0.694,-54.49,97.18062,-7.879,-6.558,92,0,109.2,13.77,-7.16,25.7
"2010-03-20 00:16:30",1777272,16.96,64.04,1.965,0.602,-54.34,97.1809,-7.879,-6.564,92,0,109.2,13.77,-7.15,26.0
"2010-03-20 00:17:00",1777273,16.84,63.47,3.282,0.787,-54.34,97.17722,-7.888,-6.556,92,0,109.2,13.77,-7.16,25.5
"2010-03-20 00:17:30",1777274,16.84,63.69,2.721,0.785,-54.41,97.17637,-7.89,-6.532,92,0,109.2,13.77,-7.17,25.7
"2010-03-20 00:18:00",1777275,16.88,63.69,2.708,0.711,-54.49,97.17892,-7.884,-6.563,92,0,109.2,13.77,-7.16,25.7
"2010-03-20 00:18:30",1777276,16.95,64.09,2.348,0.609,-54.35,97.18033,-7.88,-6.567,92,0,109.2,13.77,-7.16,26.1
"2010-03-20 00:19:00",1777277,16.95,63.5,3.224,0.618,-54.42,97.18288,-7.874,-6.561,92,0,109.2,13.77,-7.15,25.5
"2010-03-20 00:19:30",1777278,16.84,63.67,2.733,0.793,-54.42,97.1826,-7.874,-6.546,92.1,0,109.2,13.77,-7.15,25.7
"2010-03-20 00:20:00",1777279,16.84,63.68,2.704,0.79,-54.42,97.17892,-7.884,-6.565,92.1,0,109.2,13.77,-7.16,25.7
"2010-03-20 00:20:30",1777280,16.92,63.87,2.561,0.694,-54.28,97.17494,-7.894,-6.552,92.1,0,109.2,13.77,-7.17,25.9
"2010-03-20 00:21:00",1777281,16.84,63.88,2.009,0.789,-54.48,97.17605,-7.891,-6.555,92,0,109.2,13.77,-7.17,25.9
"2010-03-20 00:21:30",1777282,16.92,63.52,3.215,0.632,-54.41,97.17661,-7.889,-6.565,91.9,0,109.2,13.77,-7.17,25.5
"2010-03-20 00:22:00",1777283,16.96,63.73,3.124,0.612,-54.41,97.17742,-7.887,-6.565,91.9,0,109.1,13.77,-7.16,25.7
"2010-03-20 00:22:30",1777284,16.97,63.93,2.479,0.603,-54.33,97.17935,-7.882,-6.585,91.8,0,109.1,13.76,-7.16,25.9
"2010-03-20 00:23:00",1777285,16.89,63.7,2.789,0.712,-54.39,97.18102,-7.878,-6.578,91.8,0,109.1,13.77,-7.15,25.7
"2010-03-20 00:23:30",1777286,16.84,63.69,2.815,0.8,-54.4,97.17991,-7.881,-6.565,91.8,0,109.1,13.77,-7.16,25.7
"2010-03-20 00:24:00",1777287,16.85,63.72,2.768,0.798,-54.39,97.18128,-7.878,-6.57,91.7,0,109.1,13.77,-7.15,25.7
"2010-03-20 00:24:30",1777288,16.96,63.72,3.136,0.613,-54.25,97.18376,-7.871,-6.562,91.7,0,109.1,13.76,-7.15,25.7
"2010-03-20 00:25:00",1777289,16.85,63.73,2.781,0.796,-54.4,97.18515,-7.868,-6.564,91.7,0,109.2,13.76,-7.14,25.7
"2010-03-20 00:25:30",1777290,16.89,63.76,2.739,0.713,-54.46,97.18459,-7.869,-6.565,91.8,0,109.1,13.76,-7.14,25.8
"2010-03-20 00:26:00",1777291,16.88,63.73,2.741,0.732,-54.47,97.19048,-7.854,-6.574,91.8,0,109.1,13.76,-7.13,25.7
"2010-03-20 00:26:30",1777292,17.01,63.74,3.107,0.478,-54.26,97.19555,-7.841,-6.546,91.8,0,109.1,13.77,-7.12,25.7
"2010-03-20 00:27:00",1777293,16.89,63.51,2.872,0.713,-54.47,97.19889,-7.833,-6.556,91.8,0,109.1,13.77,-7.11,25.5
"2010-03-20 00:27:30",1777294,16.93,63.54,3.22,0.629,-54.47,97.20393,-7.82,-6.529,91.9,0,109.1,13.77,-7.10,25.5
"2010-03-20 00:28:00",1777295,16.89,63.71,2.294,0.713,-54.47,97.20847,-7.808,-6.549,91.9,0,109.1,13.77,-7.08,25.7
"2010-03-20 00:28:30",1777296,17.01,63.75,3.102,0.494,-54.25,97.21522,-7.791,-6.532,91.9,0,109.1,13.77,-7.07,25.8
"2010-03-20 00:29:00",1777297,16.93,63.75,3.096,0.626,-54.4,97.22791,-7.759,-6.516,92,0,109.1,13.78,-7.03,25.8
"2010-03-20 00:29:30",1777298,16.85,63.73,2.699,0.788,-54.39,97.2316,-7.75,-6.497,92,0,109.1,13.77,-7.02,25.7
"2010-03-20 00:30:00",1777299,16.85,63.94,2.01,0.789,-54.47,97.23159,-7.75,-6.516,92,0,109.1,13.77,-7.02,25.9
"2010-03-20 00:30:30",1777300,17.04,63.56,3.565,0.352,-54.25,97.23074,-7.752,-6.501,92,0,109.1,13.77,-7.03,25.6
"2010-03-20 00:31:00",1777301,16.89,63.78,2.709,0.713,-54.46,97.23129,-7.75,-6.503,92,0,109.1,13.78,-7.03,25.8
"2010-03-20 00:31:30",1777302,16.93,63.96,2.547,0.698,-54.39,97.23324,-7.745,-6.496,92,0,109.1,13.78,-7.02,26.0
"2010-03-20 00:32:00",1777303,16.92,63.72,3.096,0.625,-54.41,97.23214,-7.748,-6.498,92,0,109.1,13.78,-7.02,25.7
"2010-03-20 00:32:30",1777304,17.03,63.69,3.094,0.48,-54.28,97.23183,-7.749,-6.513,91.9,0,109.1,13.78,-7.02,25.7
"2010-03-20 00:33:00",1777305,16.83,63.85,2.115,0.802,-54.49,97.23239,-7.748,-6.512,91.9,0,109.1,13.78,-7.02,25.8
"2010-03-20 00:33:30",1777306,16.88,63.48,3.22,0.713,-54.42,97.2338,-7.744,-6.506,91.9,0,109.1,13.78,-7.02,25.5
"2010-03-20 00:34:00",1777307,16.88,63.67,2.68,0.712,-54.49,97.23409,-7.743,-6.497,91.8,0,109.1,13.78,-7.02,25.7
"2010-03-20 00:34:30",1777308,16.96,63.69,2.669,0.602,-54.35,97.23409,-7.743,-6.499,91.8,0,109.1,13.78,-7.02,25.7
"2010-03-20 00:35:00",1777309,16.88,63.44,2.876,0.713,-54.5,97.23463,-7.742,-6.499,91.9,0,109.1,13.78,-7.02,25.4
"2010-03-20 00:35:30",1777310,16.95,63.29,3.65,0.526,-54.35,97.23491,-7.741,-6.476,91.9,0,109.1,13.78,-7.02,25.3
"2010-03-20 00:36:00",1777311,16.95,63.29,3.648,0.528,-54.5,97.23409,-7.743,-6.498,91.9,0,109.1,13.78,-7.02,25.3
"2010-03-20 00:36:30",1777312,16.92,64.27,1.495,0.692,-54.35,97.23491,-7.741,-6.485,91.9,0,109.1,13.78,-7.02,26.3
"2010-03-20 00:37:00",1777313,16.88,63.68,2.684,0.716,-54.49,97.23409,-7.743,-6.486,91.9,0,109.1,13.78,-7.02,25.7
"2010-03-20 00:37:30",1777314,16.88,63.68,2.682,0.715,-54.49,97.23436,-7.743,-6.461,91.9,0,109.1,13.77,-7.02,25.7
"2010-03-20 00:38:00",1777315,16.89,63.72,2.687,0.714,-54.48,97.23436,-7.743,-6.49,91.9,0,109.1,13.77,-7.02,25.7
"2010-03-20 00:38:30",1777316,16.96,63.92,2.528,0.605,-54.34,97.23629,-7.738,-6.485,91.8,0,109.1,13.77,-7.01,25.9
"2010-03-20 00:39:00",1777317,16.96,63.33,3.641,0.527,-54.4,97.23546,-7.74,-6.476,91.8,0,109.1,13.77,-7.02,25.3
"2010-03-20 00:39:30",1777318,17.04,63.35,3.649,0.457,-54.12,97.23794,-7.733,-6.449,91.8,0,109.1,13.77,-7.01,25.3
"2010-03-20 00:40:00",1777319,16.92,63.73,3.092,0.625,-54.4,97.23573,-7.739,-6.474,91.7,0,109.1,13.77,-7.01,25.7
"2010-03-20 00:40:30",1777320,16.96,63.93,2.527,0.629,-54.33,97.23877,-7.731,-6.469,91.7,0,109.1,13.77,-7.01,25.9
"2010-03-20 00:41:00",1777321,16.84,63.68,2.786,0.811,-54.4,97.23849,-7.732,-6.483,91.7,0,109.1,13.77,-7.01,25.7
"2010-03-20 00:41:30",1777322,16.88,63.74,2.691,0.725,-54.47,97.23987,-7.729,-6.472,91.6,0,109.1,13.77,-7.00,25.7
"2010-03-20 00:42:00",1777323,16.91,63.5,3.259,0.656,-54.4,97.24043,-7.727,-6.485,91.6,0,109.1,13.77,-7.00,25.5
"2010-03-20 00:42:30",1777324,16.96,63.92,2.563,0.624,-54.26,97.24097,-7.726,-6.47,91.5,0,109.1,13.77,-7.00,25.9
"2010-03-20 00:43:00",1777325,16.92,63.5,3.233,0.636,-54.41,97.24153,-7.724,-6.473,91.5,0,109.1,13.77,-7.00,25.5
"2010-03-20 00:43:30",1777326,16.96,63.35,3.656,0.534,-54.33,97.24181,-7.724,-6.448,91.5,0,109.1,13.77,-7.00,25.3
"2010-03-20 00:44:00",1777327,16.95,63.65,3.097,0.627,-54.41,97.24125,-7.725,-6.475,91.5,0,109.1,13.77,-7.00,25.7
"2010-03-20 00:44:30",1777328,17.04,63.91,2.956,0.455,-54.2,97.24181,-7.724,-6.453,91.5,0,109.1,13.78,-7.00,25.9
"2010-03-20 00:45:00",1777329,16.93,63.54,3.208,0.628,-54.47,97.24181,-7.724,-6.453,91.5,0,109.1,13.78,-7.00,25.5
"2010-03-20 00:45:30",1777330,16.92,63.62,2.89,0.627,-54.48,97.24207,-7.723,-6.447,91.5,0,109.1,13.79,-7.00,25.6
"2010-03-20 00:46:00",1777331,16.97,63.4,3.501,0.527,-54.41,97.24207,-7.723,-6.459,91.5,0,109.1,13.79,-7.00,25.4
"2010-03-20 00:46:30",1777332,17.05,63.72,3.118,0.326,-54.27,97.24207,-7.723,-6.435,91.5,0,109.1,13.79,-7.00,25.7
"2010-03-20 00:47:00",1777333,17,63.23,3.674,0.494,-54.34,97.24265,-7.721,-6.424,91.6,0,109.1,13.79,-7.00,25.2
"2010-03-20 00:47:30",1777334,17,63.34,3.651,0.496,-54.33,97.24406,-7.718,-6.414,91.6,0,109.1,13.79,-6.99,25.3
"2010-03-20 00:48:00",1777335,17.04,63.32,3.648,0.459,-54.35,97.24917,-7.705,-6.41,91.6,0,109.1,13.79,-6.98,25.3
"2010-03-20 00:48:30",1777336,16.92,63.9,2.52,0.628,-54.34,97.25115,-7.7,-6.417,91.7,0,109.1,13.79,-6.97,25.9
"2010-03-20 00:49:00",1777337,16.99,63.29,3.648,0.495,-54.42,97.25428,-7.692,-6.402,91.7,0,109.1,13.79,-6.97,25.3
"2010-03-20 00:49:30",1777338,16.92,63.48,3.214,0.631,-54.35,97.25485,-7.69,-6.388,91.7,0,109.1,13.79,-6.97,25.5
"2010-03-20 00:50:00",1777339,16.95,63.27,3.645,0.526,-54.36,97.25343,-7.694,-6.398,91.7,0,109.1,13.79,-6.97,25.3
"2010-03-20 00:50:30",1777340,16.99,63.68,3.093,0.497,-54.21,97.25144,-7.699,-6.405,91.7,0,109.1,13.79,-6.97,25.7
"2010-03-20 00:51:00",1777341,16.99,63.28,3.648,0.497,-54.37,97.25031,-7.702,-6.402,91.7,0,109.1,13.79,-6.98,25.3
"2010-03-20 00:51:30",1777342,16.99,63.28,3.648,0.496,-54.36,97.24974,-7.703,-6.401,91.8,0,109.1,13.79,-6.98,25.3
"2010-03-20 00:52:00",1777343,17.03,63.27,3.644,0.455,-54.39,97.24889,-7.706,-6.408,91.8,0,109.1,13.79,-6.98,25.3
"2010-03-20 00:52:30",1777344,16.99,63.88,2.959,0.493,-54.29,97.24946,-7.704,-6.405,91.8,0,109.1,13.79,-6.98,25.9
"2010-03-20 00:53:00",1777345,16.91,63.48,3.204,0.627,-54.35,97.24661,-7.711,-6.393,91.8,0,109.1,13.79,-6.99,25.5
"2010-03-20 00:53:30",1777346,16.95,63.27,3.645,0.528,-54.43,97.24265,-7.721,-6.389,91.8,0,109.1,13.79,-7.00,25.3
"2010-03-20 00:54:00",1777347,16.95,63.29,3.651,0.528,-54.35,97.24207,-7.723,-6.408,91.8,0,109.1,13.78,-7.00,25.3
"2010-03-20 00:54:30",1777348,17.03,63.5,3.553,0.352,-54.2,97.24207,-7.723,-6.419,91.7,0,109.1,13.78,-7.00,25.5
"2010-03-20 00:55:00",1777349,16.96,63.32,3.648,0.526,-54.34,97.24207,-7.723,-6.444,91.7,0,109.1,13.78,-7.00,25.3
"2010-03-20 00:55:30",1777350,17,63.32,3.641,0.494,-54.27,97.23441,-7.742,-6.44,91.6,0,109.1,13.78,-7.02,25.3
"2010-03-20 00:56:00",1777351,17,63.33,3.642,0.5,-54.26,97.22108,-7.776,-6.443,91.5,0,109.1,13.78,-7.05,25.3
"2010-03-20 00:56:30",1777352,17.03,63.71,3.088,0.46,-54.13,97.21427,-7.794,-6.455,91.4,0,109.1,13.78,-7.07,25.7
"2010-03-20 00:57:00",1777353,17,63.33,3.642,0.498,-54.31,97.20832,-7.809,-6.472,91.3,0,109.1,13.78,-7.08,25.3
"2010-03-20 00:57:30",1777354,17,63.34,3.652,0.497,-54.33,97.20803,-7.81,-6.481,91.3,0,109.1,13.77,-7.09,25.3
"2010-03-20 00:58:00",1777355,17,63.13,4.028,0.49,-54.31,97.20803,-7.81,-6.507,91.1,0,109.1,13.77,-7.09,25.1
"2010-03-20 00:58:30",1777356,17.04,63.62,3.307,0.345,-54.27,97.20803,-7.81,-6.507,91,0,109.1,13.78,-7.09,25.6
"2010-03-20 00:59:00",1777357,17.02,63.3,3.648,0.401,-54.28,97.20576,-7.815,-6.517,90.9,0,109.2,13.79,-7.09,25.3
"2010-03-20 00:59:30",1777358,16.94,63.3,3.654,0.63,-54.35,97.19952,-7.831,-6.519,90.8,0,109.1,13.79,-7.11,25.3
"2010-03-20 01:00:00",1777359,16.99,63.31,3.645,0.493,-54.27,97.19441,-7.844,-6.551,90.7,0,109.1,13.79,-7.12,25.3
"2010-03-20 01:00:30",1777360,16.99,63.92,2.956,0.502,-54.28,97.18732,-7.862,-6.552,90.6,0,109.1,13.79,-7.14,25.9
"2010-03-20 01:01:00",1777361,16.96,63.33,3.646,0.525,-54.33,97.18761,-7.862,-6.559,90.5,0,109.1,13.79,-7.14,25.3
"2010-03-20 01:01:30",1777362,16.94,63.3,3.739,0.566,-54.35,97.18562,-7.867,-6.548,90.4,0,109.1,13.79,-7.14,25.3
"2010-03-20 01:02:00",1777363,16.96,63.56,3.242,0.526,-54.41,97.18703,-7.863,-6.573,90.4,0,109.1,13.79,-7.14,25.6
"2010-03-20 01:02:30",1777364,17.11,63.52,3.549,0.209,-54.22,97.18816,-7.86,-6.568,90.3,0,109.1,13.79,-7.14,25.5
"2010-03-20 01:03:00",1777365,17,63.13,4.027,0.479,-54.35,97.19044,-7.854,-6.561,90.2,0,109.1,13.79,-7.13,25.1
"2010-03-20 01:03:30",1777366,17,63.27,3.732,0.391,-54.17,97.19612,-7.84,-6.535,90.1,0,109.1,13.79,-7.12,25.3
"2010-03-20 01:04:00",1777367,16.99,63.13,4.033,0.491,-54.19,97.20377,-7.82,-6.559,89.9,0,109.1,13.79,-7.10,25.1
"2010-03-20 01:04:30",1777368,16.88,63.68,3.12,0.71,-54.2,97.20803,-7.81,-6.562,89.8,0,109.1,13.79,-7.09,25.7
"2010-03-20 01:05:00",1777369,17.03,63.08,4.031,0.349,-54.36,97.20803,-7.81,-6.566,89.7,0,109.1,13.8,-7.09,25.1
"2010-03-20 01:05:30",1777370,16.91,63.29,3.652,0.626,-54.3,97.20803,-7.81,-6.554,89.6,0,109.1,13.79,-7.09,25.3
"2010-03-20 01:06:00",1777371,16.91,63.26,3.657,0.622,-54.22,97.20803,-7.81,-6.534,89.5,0,109.1,13.8,-7.09,25.3
"2010-03-20 01:06:30",1777372,17.03,63.48,3.555,0.346,-54.21,97.21059,-7.803,-6.534,89.4,0,109.1,13.8,-7.08,25.5
"2010-03-20 01:07:00",1777373,17.03,63.08,4.026,0.455,-54.37,97.21655,-7.788,-6.527,89.3,0,109.2,13.8,-7.06,25.1
"2010-03-20 01:07:30",1777374,16.99,63.27,3.662,0.49,-54.37,97.22421,-7.768,-6.514,89.3,0,109.1,13.8,-7.04,25.3
"2010-03-20 01:08:00",1777375,16.99,63.27,3.643,0.49,-54.29,97.23952,-7.729,-6.485,89.2,0,109.1,13.8,-7.00,25.3
"2010-03-20 01:08:30",1777376,16.87,63.67,3.109,0.708,-54.2,97.24207,-7.723,-6.496,89.1,0,109.1,13.8,-7.00,25.7
"2010-03-20 01:09:00",1777377,16.95,63.27,3.663,0.603,-54.28,97.24207,-7.723,-6.49,89,0,109.1,13.8,-7.00,25.3
"2010-03-20 01:09:30",1777378,16.98,63.27,3.643,0.498,-54.29,97.24263,-7.722,-6.482,88.9,0,109.1,13.8,-7.00,25.3
"2010-03-20 01:10:00",1777379,16.99,63.28,3.649,0.498,-54.28,97.24207,-7.723,-6.479,88.8,0,109.1,13.8,-7.00,25.3
"2010-03-20 01:10:30",1777380,17.06,63.47,3.552,0.292,-54.15,97.24235,-7.722,-6.481,88.5,0,109.1,13.79,-7.00,25.5
"2010-03-20 01:11:00",1777381,16.95,63.3,3.646,0.523,-54.2,97.24263,-7.722,-6.467,88.1,0,109.1,13.79,-7.00,25.3
"2010-03-20 01:11:30",1777382,16.96,63.11,4.035,0.52,-54.27,97.24263,-7.722,-6.449,87.7,0,109.1,13.79,-7.00,25.1
"2010-03-20 01:12:00",1777383,16.96,63.11,4.03,0.52,-54.27,97.24263,-7.722,-6.449,87.2,0,109.1,13.79,-7.00,25.1
"2010-03-20 01:12:30",1777384,16.96,63.52,3.558,0.521,-54.12,97.24207,-7.723,-6.466,86.8,0,109.1,13.79,-7.00,25.5
"2010-03-20 01:13:00",1777385,16.99,63.11,4.025,0.49,-54.2,97.24345,-7.719,-6.45,86.4,0,109.2,13.79,-6.99,25.1
"2010-03-20 01:13:30",1777386,17,63.13,4.034,0.491,-54.19,97.24263,-7.722,-6.439,86,0,109.1,13.79,-7.00,25.1
"2010-03-20 01:14:00",1777387,16.99,63.12,4.027,0.488,-54.2,97.2429,-7.721,-6.461,85.4,0,109.1,13.79,-7.00,25.1
"2010-03-20 01:14:30",1777388,17,63.51,3.556,0.49,-54.2,97.24345,-7.719,-6.458,84.9,0,109.1,13.79,-6.99,25.5
"2010-03-20 01:15:00",1777389,17.03,63.1,4.085,0.457,-54.19,97.24401,-7.718,-6.437,84.5,0,109.2,13.79,-6.99,25.1
"2010-03-20 01:15:30",1777390,16.95,63.08,4.071,0.526,-54.28,97.24622,-7.712,-6.441,84.1,0,109.1,13.79,-6.99,25.1
"2010-03-20 01:16:00",1777391,16.95,63.29,3.651,0.522,-54.35,97.24649,-7.712,-6.443,83.7,0,109.1,13.8,-6.99,25.3
"2010-03-20 01:16:30",1777392,16.99,63.5,3.59,0.49,-54.14,97.25063,-7.701,-6.45,83.4,0,109.1,13.8,-6.98,25.5
"2010-03-20 01:17:00",1777393,16.91,63.52,3.217,0.633,-54.4,97.25173,-7.698,-6.447,83.1,0,109.2,13.8,-6.97,25.5
"2010-03-20 01:17:30",1777394,16.95,63.11,4.028,0.517,-54.21,97.25256,-7.696,-6.439,83.2,0,109.1,13.8,-6.97,25.1
"2010-03-20 01:18:00",1777395,16.92,63.34,3.653,0.623,-54.32,97.25394,-7.693,-6.43,83.4,0,109.1,13.8,-6.97,25.3
"2010-03-20 01:18:30",1777396,16.92,63.74,2.985,0.622,-54.2,97.25256,-7.696,-6.422,83.4,0,109.1,13.8,-6.97,25.7
"2010-03-20 01:19:00",1777397,17,63.47,3.286,0.492,-54.41,97.25478,-7.691,-6.433,83.1,0,109.2,13.8,-6.97,25.5
"2010-03-20 01:19:30",1777398,16.96,63.51,3.555,0.601,-54.27,97.26002,-7.677,-6.426,82.7,0,109.1,13.8,-6.95,25.5
"2010-03-20 01:20:00",1777399,16.96,63.32,3.649,0.6,-54.27,97.25837,-7.682,-6.441,82.4,0,109.1,13.8,-6.96,25.3
"2010-03-20 01:20:30",1777400,17,63.52,3.551,0.489,-54.21,97.26196,-7.672,-6.457,82.1,0,109.1,13.8,-6.95,25.5
"2010-03-20 01:21:00",1777401,16.99,63.1,4.024,0.489,-54.36,97.26222,-7.672,-6.45,82,0,109.1,13.8,-6.95,25.1
"2010-03-20 01:21:30",1777402,17.01,63.1,4.032,0.391,-54.36,97.2625,-7.671,-6.435,82,0,109.1,13.8,-6.95,25.1
"2010-03-20 01:22:00",1777403,17.02,63.26,3.648,0.35,-54.3,97.26389,-7.667,-6.435,82,0,109.1,13.8,-6.94,25.3
"2010-03-20 01:22:30",1777404,16.87,64.05,2.354,0.706,-54.28,97.26443,-7.666,-6.416,82,0,109.1,13.8,-6.94,26.1
"2010-03-20 01:23:00",1777405,17,63.06,4.024,0.459,-54.22,97.26389,-7.667,-6.437,82.1,0,109.1,13.8,-6.94,25.1
"2010-03-20 01:23:30",1777406,16.98,63.07,4.026,0.489,-54.22,97.26443,-7.666,-6.423,82.1,0,109.1,13.8,-6.94,25.1
"2010-03-20 01:24:00",1777407,16.98,63.07,4.026,0.489,-54.22,97.26582,-7.663,-6.427,82.3,0,109.1,13.8,-6.94,25.1
"2010-03-20 01:24:30",1777408,16.99,63.47,3.551,0.489,-54.15,97.26637,-7.661,-6.426,82.3,0,109.1,13.8,-6.94,25.5
"2010-03-20 01:25:00",1777409,16.98,63.04,4.107,0.499,-54.3,97.26609,-7.662,-6.418,82.3,0,109.1,13.8,-6.94,25.0
"2010-03-20 01:25:30",1777410,16.94,63.03,4.089,0.525,-54.3,97.26582,-7.663,-6.425,82.4,0,109.1,13.8,-6.94,25.0
"2010-03-20 01:26:00",1777411,16.95,63.05,4.117,0.52,-54.21,97.26692,-7.66,-6.406,82.5,0,109.1,13.8,-6.93,25.0
"2010-03-20 01:26:30",1777412,16.87,63.81,2.669,0.706,-54.29,97.26692,-7.66,-6.426,82.5,0,109.1,13.8,-6.93,25.8
"2010-03-20 01:27:00",1777413,16.99,63.27,3.646,0.475,-54.36,97.2672,-7.659,-6.4,82.5,0,109.1,13.8,-6.93,25.3
"2010-03-20 01:27:30",1777414,16.92,63.49,3.556,0.621,-54.24,97.26692,-7.66,-6.396,82.4,0,109.1,13.8,-6.93,25.5
"2010-03-20 01:28:00",1777415,16.84,63.5,3.225,0.78,-54.34,97.2672,-7.659,-6.405,82.3,0,109.1,13.8,-6.93,25.5
"2010-03-20 01:28:30",1777416,16.92,63.5,3.545,0.625,-54.13,97.26692,-7.66,-6.399,82.3,0,109.1,13.8,-6.93,25.5
"2010-03-20 01:29:00",1777417,16.96,63.51,3.218,0.599,-54.26,97.2672,-7.659,-6.411,82.2,0,109.1,13.8,-6.93,25.5
"2010-03-20 01:29:30",1777418,16.92,63.11,4.063,0.623,-54.27,97.26775,-7.658,-6.388,82.3,0,109.1,13.8,-6.93,25.1
"2010-03-20 01:30:00",1777419,16.92,63.5,3.206,0.621,-54.34,97.2672,-7.659,-6.39,82.4,0,109.1,13.8,-6.93,25.5
"2010-03-20 01:30:30",1777420,16.88,63.71,3.115,0.709,-54.19,97.26692,-7.66,-6.377,82.4,0,109.1,13.8,-6.93,25.7
"2010-03-20 01:31:00",1777421,16.96,63.51,3.235,0.599,-54.34,97.26775,-7.658,-6.38,82.3,0,109.1,13.79,-6.93,25.5
"2010-03-20 01:31:30",1777422,16.88,63.52,3.239,0.709,-54.33,97.26803,-7.657,-6.382,82.4,0,109.1,13.79,-6.93,25.5
"2010-03-20 01:32:00",1777423,16.88,63.5,3.222,0.708,-54.34,97.26775,-7.658,-6.389,82.4,0,109.1,13.8,-6.93,25.5
"2010-03-20 01:32:30",1777424,16.88,64.07,2.381,0.708,-54.27,97.2683,-7.656,-6.389,82.3,0,109.1,13.8,-6.93,26.1
"2010-03-20 01:33:00",1777425,17,63.5,3.214,0.574,-54.35,97.26858,-7.656,-6.365,82.3,0,109.1,13.8,-6.93,25.5
"2010-03-20 01:33:30",1777426,16.95,63.11,4.051,0.522,-54.27,97.2683,-7.656,-6.385,82.2,0,109.1,13.8,-6.93,25.1
"2010-03-20 01:34:00",1777427,16.92,63.31,3.672,0.622,-54.27,97.26941,-7.653,-6.369,82.1,0,109.1,13.8,-6.93,25.3
"2010-03-20 01:34:30",1777428,16.92,63.71,3.111,0.622,-54.19,97.26884,-7.655,-6.365,82,0,109.1,13.81,-6.93,25.7
"2010-03-20 01:35:00",1777429,16.96,63.31,3.657,0.598,-54.27,97.26995,-7.652,-6.375,81.9,0,109.1,13.81,-6.93,25.3
"2010-03-20 01:35:30",1777430,16.88,63.51,3.241,0.707,-54.34,97.26884,-7.655,-6.384,81.7,0,109.1,13.81,-6.93,25.5
"2010-03-20 01:36:00",1777431,16.88,63.5,3.228,0.709,-54.34,97.26968,-7.653,-6.385,81.7,0,109.1,13.81,-6.93,25.5
"2010-03-20 01:36:30",1777432,16.88,63.9,2.538,0.707,-54.27,97.27161,-7.648,-6.369,81.5,0,109.1,13.81,-6.92,25.9
"2010-03-20 01:37:00",1777433,16.96,63.5,3.218,0.599,-54.32,97.27023,-7.651,-6.391,81.5,0,109.2,13.81,-6.93,25.5
"2010-03-20 01:37:30",1777434,16.84,63.69,2.695,0.783,-54.45,97.27078,-7.65,-6.38,81.5,0,109.1,13.81,-6.92,25.7
"2010-03-20 01:38:00",1777435,16.85,63.66,2.694,0.754,-54.42,97.27272,-7.645,-6.393,81.4,0,109.1,13.81,-6.92,25.7
"2010-03-20 01:38:30",1777436,16.83,64.06,2.346,0.781,-54.18,97.27245,-7.646,-6.388,81.3,0,109.1,13.81,-6.92,26.1
"2010-03-20 01:39:00",1777437,16.94,63.39,3.366,0.613,-54.37,97.27299,-7.644,-6.385,81.2,0,109.1,13.81,-6.92,25.4
"2010-03-20 01:39:30",1777438,16.87,63.41,3.324,0.707,-54.37,97.27299,-7.644,-6.374,81.2,0,109.1,13.81,-6.92,25.4
"2010-03-20 01:40:00",1777439,16.87,63.42,3.287,0.706,-54.36,97.27299,-7.644,-6.385,81.2,0,109.1,13.81,-6.92,25.4
"2010-03-20 01:40:30",1777440,16.87,63.63,3.123,0.706,-54.22,97.27245,-7.646,-6.373,81.3,0,109.1,13.81,-6.92,25.6
"2010-03-20 01:41:00",1777441,16.95,63.43,3.245,0.599,-54.36,97.27409,-7.641,-6.378,81.3,0,109.1,13.81,-6.92,25.4
"2010-03-20 01:41:30",1777442,16.87,63.42,3.229,0.705,-54.36,97.27272,-7.645,-6.387,81.4,0,109.1,13.81,-6.92,25.4
"2010-03-20 01:42:00",1777443,16.87,63.44,3.23,0.706,-54.36,97.27327,-7.644,-6.389,81.4,0,109.1,13.81,-6.92,25.4
"2010-03-20 01:42:30",1777444,16.83,64.03,1.813,0.779,-54.36,97.27465,-7.64,-6.37,81.4,0,109.1,13.81,-6.91,26.0
"2010-03-20 01:43:00",1777445,17.02,63.44,3.563,0.454,-54.22,97.27438,-7.641,-6.386,81.4,0,109.1,13.81,-6.92,25.4
"2010-03-20 01:43:30",1777446,16.87,63.44,3.2,0.705,-54.29,97.27438,-7.641,-6.376,81.4,0,109.1,13.8,-6.92,25.4
"2010-03-20 01:44:00",1777447,16.87,63.45,3.265,0.714,-54.35,97.27493,-7.639,-6.408,81.5,0,109.1,13.8,-6.91,25.5
"2010-03-20 01:44:30",1777448,16.88,63.88,2.583,0.706,-54.27,97.27382,-7.642,-6.404,81.5,0,109.1,13.8,-6.92,25.9
"2010-03-20 01:45:00",1777449,16.96,63.28,3.669,0.598,-54.28,97.27465,-7.64,-6.389,81.5,0,109.2,13.8,-6.91,25.3
"2010-03-20 01:45:30",1777450,16.92,63.32,3.667,0.622,-54.27,97.27354,-7.643,-6.392,81.4,0,109.1,13.8,-6.92,25.3
"2010-03-20 01:46:00",1777451,16.92,63.3,3.661,0.621,-54.27,97.27382,-7.642,-6.399,81.4,0,109.1,13.8,-6.92,25.3